Grand Junction, CO

1:15 AM MDT on September 17, 2019 (GMT -0600)
Walker

Weather History for KGJT - April, 2019

Change the Weather History Date:

Friday, April 5, 2019

  Actual Average Record
Temperature  
Mean Temperature 59 °F 49 °F  
Max Temperature 69 °F 62 °F 82 °F (1959)
Min Temperature 48 °F 35 °F 16 °F (1901)
Degree Days  
Heating Degree Days 6 16  
Month to date heating degree days 58 84  
Since 1 July heating degree days 5166 5116  
Cooling Degree Days 0 0  
Month to date cooling degree days 0 0  
Year to date cooling degree days 0 0  
Growing Degree Days 8 (Base 50)    
Moisture  
Dew Point 27 °F    
Average Humidity 38    
Maximum Humidity 56    
Minimum Humidity 20    
Precipitation  
Precipitation 0.00 in 0.03 in 0.40 in (2004)
Month to date precipitation 0.01 0.16  
Year to date precipitation 3.74 2.20  
Snow  
Snow 0.00 in 0.10 in 1.80 in (1997)
Month to date snowfall 0.0 0.3  
Since 1 July snowfall 17.4 18.4  
Snow Depth 0.00 in    
Sea Level Pressure  
Sea Level Pressure 29.78 in    
Wind  
Wind Speed 8 mph (East)    
Max Wind Speed 25 mph    
Max Gust Speed 32 mph    
Visibility 10 miles    
Events      
T = Trace of Precipitation, MM = Missing Value Source: NWS Daily Summary

Daily Weather History Graph

Daily Weather History Graph

Search for Another Location

Airport or City:

Astronomy

Apr. 05, 2019 Rise Set
Actual Time 6:52 AM MDT 7:41 PM MDT
Civil Twilight 6:25 AM MDT 8:08 PM MDT
Nautical Twilight 5:53 AM MDT 8:40 PM MDT
Astronomical Twilight 5:20 AM MDT 9:14 PM MDT
Moon 7:25 AM MDT (4/5) 8:10 PM MDT (4/5)
Length of Visible Light 13h 43m
Length of Day
12h 48m
New Moon, 0% of the Moon is Illuminated
Apr 5
New Moon
Apr 12
First Quarter
Apr 19
Full
Apr 26
Last Quarter
May 4
New

Hourly Weather History & Observations

Time (MDT) Temp. Dew Point Humidity Pressure Visibility Wind Dir Wind Speed Gust Speed Precip Events Conditions
12:53 AM 48.9 °F 33.1 °F 54% 29.86 in 10.0 mi Calm Calm - N/A   Clear
1:53 AM 48.9 °F 33.1 °F 54% 29.85 in 10.0 mi East 8.1 mph - N/A   Clear
2:53 AM 52.0 °F 30.9 °F 45% 29.82 in 10.0 mi ESE 13.8 mph - N/A   Overcast
3:53 AM 50.0 °F 30.0 °F 46% 29.81 in 10.0 mi ESE 18.4 mph - N/A   Mostly Cloudy
4:53 AM 51.1 °F 28.9 °F 43% 29.80 in 10.0 mi SE 25.3 mph - N/A   Mostly Cloudy
5:53 AM 50.0 °F 28.9 °F 44% 29.81 in 10.0 mi SE 20.7 mph - N/A   Clear
6:53 AM 48.9 °F 28.0 °F 44% 29.83 in 10.0 mi ESE 16.1 mph 19.6 mph N/A   Clear
7:53 AM 52.0 °F 28.0 °F 40% 29.85 in 10.0 mi SSE 9.2 mph - N/A   Mostly Cloudy
8:53 AM 52.0 °F 30.9 °F 45% 29.87 in 10.0 mi Calm Calm - N/A   Mostly Cloudy
9:53 AM 59.0 °F 28.0 °F 31% 29.84 in 10.0 mi SE 8.1 mph - N/A   Clear
10:53 AM 62.1 °F 27.0 °F 26% 29.83 in 10.0 mi ESE 6.9 mph - N/A   Clear
11:53 AM 64.0 °F 23.0 °F 21% 29.80 in 10.0 mi Variable 3.5 mph - N/A   Clear
12:53 PM 64.9 °F 26.1 °F 23% 29.78 in 10.0 mi Variable 5.8 mph - N/A   Clear
1:53 PM 66.0 °F 25.0 °F 21% 29.76 in 10.0 mi WNW 5.8 mph - N/A   Clear
2:53 PM 66.9 °F 24.1 °F 20% 29.72 in 10.0 mi Variable 5.8 mph - N/A   Mostly Cloudy
3:53 PM 66.0 °F 27.0 °F 23% 29.72 in 10.0 mi NW 8.1 mph - N/A   Mostly Cloudy
4:53 PM 66.0 °F 25.0 °F 21% 29.71 in 10.0 mi Variable 5.8 mph - N/A   Overcast
5:53 PM 64.0 °F 23.0 °F 21% 29.72 in 10.0 mi WNW 10.4 mph - N/A   Partly Cloudy
6:53 PM 62.1 °F 26.1 °F 25% 29.73 in 10.0 mi NW 6.9 mph - N/A   Clear
7:53 PM 59.0 °F 25.0 °F 27% 29.73 in 10.0 mi NNW 8.1 mph - N/A   Clear
8:53 PM 55.0 °F 27.0 °F 34% 29.75 in 10.0 mi NNE 6.9 mph - N/A   Clear
9:53 PM 52.0 °F 28.9 °F 41% 29.76 in 10.0 mi Calm Calm - N/A   Clear
10:53 PM 52.0 °F 28.9 °F 41% 29.76 in 10.0 mi East 6.9 mph - N/A   Partly Cloudy
11:53 PM 52.0 °F 28.9 °F 41% 29.77 in 10.0 mi ESE 5.8 mph - N/A   Clear